Location: Schommer Observatory
(40.5200°N, 74.4500°W)
Time: 23:42:11
(UTC-04:00)

ISS - Pass Details

Date: 09 October 2017
Orbit: 401 x 408 km, 51.6° (Epoch: 19 October)

Event Time Altitude Azimuth Distance (km) Brightness Sun altitude
Rises 20:34:24 0° 310° (NW) 2,328 1.0 -25.0°
Reaches altitude 10° 20:36:34 10° 318° (NW) 1,467 -0.3 -25.4°
Enters shadow 20:37:48 20° 328° (NNW) 1,011 -1.4 -25.6°
